Starlink 32360

operational
NORAD ID: 61007 Int'l Des: 2024-158 Owner: SPXS Country: US Constellation: starlink
LEOCIRCULAR

Über Starlink 32360

Beschreibung wird geladen...

Live-Position

3D-Globus wird geladen...

Nächste Überflüge

Höhenverlauf

Altitude vs Time

uPlot chart will show altitude changes over time

Zweizeiliger Elementsatz

1 61007U 24158T 25257.55043891 .00003677 00000-0 13625-3 0 9993
2 61007 53.1594 148.3801 0001369 85.4732 274.6425 15.30191245 58820
Epoch: 14. Sept. 2025 • Age: 17 hours

Aktueller Status

Höhe 477.6 km
Geschwindigkeit 7.63 km/s
Subsatellitenpunkt -7.69°S, 48.63°E
Startdatum 5. Sept. 2024
Alter 1 years
Typ internet

Technische Details

Klassifizierung Payload
Masse 730.00 kg
Trockenmasse 700.00 kg
Gesamtmasse 730.00 kg
Länge 0.30 m
Durchmesser 4.10 m
Spannweite 29.00 m
Form Box + pan
Hersteller SPXS
Bus-Typ Starlink V2M
Phasenstatus In Orbit
Besitzer/Staat SPXS/US

Große Konstellationen

Loading constellations...